Total_Precipitation_Accumulation
0.01 0.01 0.01 0.02 0.03 0.04 0.08 0.16 0.24 0.25 0.23 0.33 0.50 0.76 0.90 0.88 0.92 1.06 1.17 1.36 1.40 1.44 1.72 2.19 2.84 3.52 4.33 5.44 6.10 6.24 5.99 5.30 4.80 4.39 4.14 3.87 3.62 3.35 2.88 2.50 2.27 2.16 2.04 1.99
0.01 0.03 0.03 0.03 0.03 0.04 0.07 0.14 0.23 0.22 0.18 0.22 0.47 0.85 0.98 0.99 1.05 1.02 1.09 1.17 1.10 1.26 1.60 2.20 2.97 3.78 4.46 5.00 5.36 5.45 5.08 4.33 3.84 3.60 3.54 3.28 3.09 2.78 2.57 2.35 2.31 2.00 1.92 1.95
0.03 0.04 0.02 0.02 0.03 0.05 0.09 0.11 0.18 0.22 0.19 0.23 0.46 1.01 1.24 1.13 1.10 1.07 0.97 0.95 1.05 1.28 1.81 2.55 3.36 4.13 4.45 4.48 4.27 3.97 3.79 3.40 3.29 3.24 3.06 2.84 2.81 2.55 2.39 2.18 2.09 1.80 1.63 1.64
0.02 0.04 0.03 0.03 0.05 0.06 0.10 0.09 0.08 0.10 0.17 0.40 0.56 1.11 1.30 1.28 1.21 1.06 1.04 1.05 1.15 1.43 1.95 2.64 3.18 3.42 3.56 3.50 3.21 3.02 2.95 2.88 2.82 2.74 2.64 2.35 2.22 2.20 2.05 1.97 1.99 1.86 1.66 1.64
0.03 0.04 0.05 0.05 0.05 0.06 0.07 0.06 0.06 0.11 0.23 0.44 0.60 0.95 1.32 1.30 1.37 0.95 0.81 0.90 1.00 1.24 1.52 1.72 1.92 2.09 2.22 2.25 2.41 2.48 2.61 2.73 2.64 2.58 2.57 2.49 2.20 2.16 2.13 2.12 2.22 2.08 1.86 1.67
0.03 0.03 0.04 0.04 0.04 0.05 0.05 0.07 0.14 0.25 0.43 0.80 0.82 1.00 1.34 1.33 1.23 0.83 0.62 0.63 0.80 0.91 0.97 1.06 1.15 1.27 1.50 1.56 1.78 1.99 2.11 2.26 2.43 2.47 2.31 2.23 2.18 2.22 2.26 2.20 2.02 1.83 1.70 1.59
0.10 0.08 0.07 0.07 0.07 0.07 0.07 0.13 0.38 0.73 1.08 1.14 0.72 0.84 1.24 1.18 0.86 0.59 0.49 0.46 0.49 0.67 0.81 0.94 1.05 1.14 1.35 1.31 1.39 1.62 1.68 1.70 1.86 1.91 1.88 1.94 2.09 2.14 2.02 1.90 1.82 1.66 1.42 1.40
0.15 0.15 0.10 0.08 0.09 0.08 0.08 0.12 0.25 0.45 0.57 0.76 0.82 1.30 1.48 0.88 0.60 0.46 0.42 0.41 0.42 0.58 0.72 0.81 0.80 0.88 1.01 1.01 1.15 1.27 1.34 1.41 1.48 1.60 1.72 1.69 1.84 1.85 1.76 1.83 1.70 1.56 1.35 1.25
0.07 0.09 0.08 0.07 0.09 0.10 0.09 0.08 0.12 0.17 0.25 0.57 0.99 1.36 1.31 0.80 0.61 0.45 0.43 0.45 0.47 0.45 0.58 0.64 0.58 0.58 0.73 0.86 0.99 1.07 1.14 1.26 1.30 1.44 1.52 1.50 1.60 1.69 1.74 1.75 1.63 1.46 1.47 1.31
0.05 0.04 0.06 0.06 0.08 0.10 0.09 0.12 0.14 0.15 0.25 0.49 0.90 1.40 1.67 1.22 0.69 0.52 0.50 0.50 0.55 0.47 0.50 0.54 0.53 0.49 0.58 0.75 1.01 1.07 1.08 1.21 1.23 1.32 1.34 1.22 1.39 1.53 1.68 1.63 1.55 1.50 1.52 1.47
0.05 0.04 0.07 0.08 0.08 0.10 0.11 0.12 0.14 0.16 0.18 0.31 0.74 1.06 0.94 0.92 0.67 0.67 0.65 0.57 0.56 0.52 0.55 0.53 0.52 0.51 0.50 0.63 0.85 0.91 1.05 1.16 1.21 1.28 1.39 1.44 1.44 1.39 1.51 1.54 1.52 1.56 1.60 1.57
0.04 0.05 0.06 0.10 0.11 0.13 0.14 0.15 0.15 0.17 0.18 0.21 0.36 0.59 0.59 0.74 0.70 0.71 0.77 0.70 0.64 0.48 0.45 0.48 0.52 0.57 0.54 0.57 0.69 0.83 1.00 1.16 1.22 1.29 1.42 1.51 1.65 1.61 1.55 1.53 1.57 1.61 1.73 1.80
0.04 0.05 0.09 0.18 0.24 0.20 0.14 0.13 0.14 0.15 0.14 0.15 0.34 0.55 0.53 0.61 0.65 0.62 0.75 0.75 0.64 0.59 0.55 0.55 0.61 0.65 0.71 0.71 0.73 0.83 1.01 1.21 1.33 1.40 1.49 1.63 1.71 1.61 1.53 1.64 1.73 1.78 1.92 2.07
0.04 0.04 0.07 0.18 0.27 0.30 0.22 0.15 0.14 0.13 0.14 0.14 0.23 0.47 0.55 0.63 0.61 0.68 0.75 0.77 0.77 0.74 0.66 0.62 0.61 0.65 0.76 0.96 0.97 1.01 1.28 1.32 1.34 1.54 1.73 1.80 1.82 1.73 1.67 1.76 1.88 1.91 1.97 2.13
0.04 0.04 0.05 0.06 0.11 0.17 0.21 0.19 0.15 0.11 0.09 0.13 0.21 0.39 0.50 0.62 0.71 0.75 0.74 0.70 0.68 0.69 0.67 0.61 0.60 0.66 0.77 0.92 1.03 1.15 1.21 1.40 1.48 1.69 1.87 1.93 2.01 2.02 2.02 2.12 2.12 2.04 2.06 2.07
0.08 0.06 0.05 0.05 0.08 0.12 0.15 0.18 0.13 0.10 0.09 0.10 0.20 0.43 0.54 0.60 0.65 0.75 0.72 0.72 0.71 0.68 0.70 0.75 0.78 0.79 0.81 0.87 0.97 1.07 1.14 1.35 1.58 1.87 2.16 2.20 2.25 2.23 2.32 2.46 2.52 2.41 2.37 2.45
0.13 0.11 0.09 0.08 0.11 0.12 0.17 0.17 0.15 0.17 0.16 0.19 0.29 0.44 0.53 0.60 0.68 0.88 0.87 0.81 0.81 0.82 0.84 0.91 1.02 0.99 0.95 0.97 1.00 1.10 1.22 1.41 1.70 1.98 2.23 2.37 2.43 2.47 2.56 2.67 2.68 2.62 2.66 2.80
0.20 0.20 0.17 0.13 0.18 0.24 0.22 0.22 0.22 0.25 0.28 0.32 0.41 0.46 0.60 0.81 0.91 1.07 1.11 0.98 0.94 0.88 0.85 0.92 1.09 1.13 1.10 1.11 1.17 1.30 1.49 1.75 2.02 2.21 2.35 2.45 2.48 2.50 2.56 2.63 2.54 2.57 2.70 2.75
0.22 0.26 0.27 0.24 0.27 0.28 0.32 0.35 0.37 0.42 0.55 0.55 0.64 0.73 0.84 0.94 0.93 1.01 0.95 0.85 0.85 0.86 0.91 0.99 1.11 1.23 1.33 1.37 1.44 1.52 1.67 1.88 2.10 2.26 2.30 2.28 2.37 2.48 2.54 2.56 2.58 2.60 2.62 2.50
0.33 0.33 0.42 0.38 0.41 0.45 0.49 0.52 0.48 0.56 1.03 1.07 1.06 0.99 0.95 0.99 1.20 1.17 0.95 0.86 0.90 0.97 1.03 1.11 1.13 1.18 1.32 1.44 1.46 1.57 1.75 1.97 2.16 2.31 2.33 2.30 2.41 2.52 2.57 2.63 2.67 2.59 2.49 2.43
0.54 0.57 0.54 0.55 0.60 0.58 0.55 0.52 0.54 0.91 1.25 1.19 1.17 1.19 1.11 1.18 1.25 1.22 1.10 1.08 1.03 1.05 1.15 1.15 1.19 1.21 1.27 1.38 1.48 1.61 1.73 1.86 2.00 2.17 2.30 2.45 2.62 2.68 2.69 2.70 2.62 2.53 2.43 2.45
0.67 0.72 0.73 0.74 0.93 1.01 0.72 0.61 0.88 1.18 1.05 1.18 1.31 1.29 1.28 1.24 1.16 1.18 1.19 1.17 1.14 1.09 1.17 1.21 1.24 1.37 1.44 1.50 1.54 1.63 1.64 1.73 1.91 1.97 2.10 2.18 2.32 2.41 2.43 2.52 2.47 2.50 2.45 2.36
0.87 0.87 0.92 1.02 1.16 1.00 0.84 0.88 1.01 1.06 1.15 1.21 1.34 1.42 1.37 1.39 1.30 1.18 1.19 1.15 1.31 1.37 1.36 1.37 1.31 1.36 1.42 1.51 1.60 1.68 1.67 1.64 1.71 1.82 1.96 2.08 2.14 2.30 2.39 2.45 2.41 2.33 2.26 2.13
1.07 0.88 0.99 1.25 1.31 1.17 1.09 1.05 1.01 1.03 1.13 1.20 1.34 1.43 1.50 1.45 1.27 1.18 1.13 1.09 1.09 1.15 1.16 1.27 1.26 1.30 1.45 1.43 1.47 1.59 1.66 1.65 1.71 1.80 1.83 1.92 2.01 2.13 2.34 2.39 2.25 2.09 1.94 1.86
1.20 1.22 1.25 1.45 1.49 1.29 1.21 1.16 1.20 1.18 1.16 1.18 1.28 1.34 1.40 1.33 1.24 1.22 1.16 1.08 1.05 1.02 1.01 1.05 1.10 1.15 1.21 1.23 1.26 1.36 1.48 1.54 1.53 1.52 1.50 1.54 1.70 1.86 2.02 2.06 1.98 1.81 1.71 1.80
1.13 1.38 1.55 1.64 1.45 1.47 1.49 1.39 1.37 1.46 1.44 1.39 1.42 1.52 1.50 1.33 1.23 1.17 1.06 0.98 0.94 0.88 0.84 0.91 0.97 1.00 1.04 1.08 1.17 1.27 1.47 1.61 1.62 1.54 1.44 1.43 1.43 1.50 1.69 1.90 1.97 1.83 1.62 1.66